• Processing (Info)

  • MPEC 2016-Q32 : 2016 QJ10

    The following Minor Planet Electronic Circular may be linked-to from your own Web pages, but must not otherwise be redistributed electronically.

    A form allowing access to any MPEC is at the bottom of this page.


    Read MPEC 2016-Q31 Read MPEC 2016-Q33


    M.P.E.C. 2016-Q32                                Issued 2016 Aug. 28, 15:37 UT
    
         The Minor Planet Electronic Circulars contain information on unusual
             minor planets and routine data on comets.  They are published
        on behalf of Division F of the International Astronomical Union by the
              Minor Planet Center, Smithsonian Astrophysical Observatory,
                              Cambridge, MA 02138, U.S.A.
    
                 Prepared using the Tamkin Foundation Computer Network
    
                                  MPC@CFA.HARVARD.EDU
                URL https://www.minorplanetcenter.net/    ISSN 1523-6714
    
                                       2016 QJ10
    
    Observations:
         K16Q10J  C2016 08 24.66709 22 45 42.68 +00 56 42.4          20.2 RqEQ032D29
         K16Q10J  C2016 08 24.68388 22 45 43.59 +00 56 46.7          19.5 RqEQ032D29
         K16Q10J  C2016 08 24.70067 22 45 44.45 +00 56 49.2          20.5 RqEQ032D29
         K16Q10J* C2016 08 26.39434 22 47 30.061+01 01 33.46         20.4 wLEQ032F51
         K16Q10J  C2016 08 26.40657 22 47 30.702+01 01 35.30         20.3 wLEQ032F51
         K16Q10J  C2016 08 26.41880 22 47 31.331+01 01 37.09         20.5 wLEQ032F51
         K16Q10J  C2016 08 26.43102 22 47 31.959+01 01 38.85         20.5 wLEQ032F51
         K16Q10J FC2016 08 26.92740 22 48 03.33 +01 02 40.8          20.1 RqEQ032246
         K16Q10J FC2016 08 26.93076 22 48 03.42 +01 02 40.4                qEQ032246
         K16Q10J  C2016 08 27.06754422 48 10.62 +01 03 36.1          20.1 RqEQ032K92
         K16Q10J  C2016 08 27.07024722 48 10.77 +01 03 36.1          20.0 RqEQ032K92
         K16Q10J  C2016 08 27.07301222 48 10.94 +01 03 36.9          20.2 RqEQ032K92
         K16Q10J  C2016 08 27.07574622 48 11.08 +01 03 37.2          20.0 RqEQ032K92
         K16Q10J  C2016 08 27.07844922 48 11.23 +01 03 37.3          20.0 RqEQ032K92
         K16Q10J HC2016 08 27.33006 22 48 28.14 +01 03 41.5          20.3 RoEQ032291
         K16Q10J HC2016 08 27.34433 22 48 28.90 +01 03 43.5          20.3 RoEQ032291
         K16Q10J  C2016 08 27.65965 22 48 49.30 +01 04 24.5          19.5 RqEQ032D29
         K16Q10J  C2016 08 27.67733 22 48 50.24 +01 04 26.0          20.7 RqEQ032D29
         K16Q10J  C2016 08 27.69500 22 48 51.17 +01 04 28.3          20.6 RqEQ032D29
         K16Q10J KC2016 08 27.71179 22 48 52.41 +01 04 24.5          20.7 RqEQ032O75
         K16Q10J KC2016 08 27.71821 22 48 52.68 +01 04 26.3          20.3 RqEQ032O75
         K16Q10J KC2016 08 27.72453 22 48 53.08 +01 04 26.7          20.4 RqEQ032O75
         K16Q10J KC2016 08 27.73090 22 48 53.47 +01 04 27.0          20.4 RqEQ032O75
         K16Q10J KC2016 08 27.88416 22 49 04.01 +01 04 46.8                tEQ032595
         K16Q10J KC2016 08 27.91596 22 49 05.79 +01 04 51.9          20.5 VtEQ032595
         K16Q10J  C2016 08 28.30586 22 49 30.35 +01 05 44.2                oEQ032691
         K16Q10J  C2016 08 28.31652 22 49 30.89 +01 05 45.4                oEQ032691
         K16Q10J  C2016 08 28.32723 22 49 31.45 +01 05 46.4                oEQ032691
         K16Q10J  C2016 08 28.34608 22 49 32.44 +01 05 47.9          20.0 VqEQ032G96
         K16Q10J  C2016 08 28.35200 22 49 32.77 +01 05 48.9          20.0 VqEQ032G96
         K16Q10J  C2016 08 28.35797 22 49 33.05 +01 05 49.3          20.2 VqEQ032G96
         K16Q10J  C2016 08 28.36416 22 49 33.43 +01 05 50.5          20.3 VqEQ032G96
    
    Observer details:
    246 Klet Observatory-KLENOT.  Observers M. Tichy, J. Ticha.  Measurer M. Tichy.
        1.06-m KLENOT Telescope + CCD.
    291 LPL/Spacewatch II.  Observer R. A. Mastaler.  1.8-m f/2.7 reflector + CCD.
    595 Farra d'Isonzo.  Observers E. Pettarin, M. Vivona.  Measurer E. Pettarin.
        0.61-m f/4.0 reflector + CCD.
    691 Steward Observatory, Kitt Peak.  Observer R. A. Mastaler R. A. Mastaler.
        0.9-m f/3 reflector + CCD.
    D29 Purple Mountain Observatory, XuYi Station.  Observers H. B. Zhao, B. Li,
        G. Zhaori, R. Q. Hong, L. F. Hu.  Measurers H. B. Zhao, B. Li. H. Lu,
        G. Zhaori.  1.04-m f/1.8 Schmidt + CCD.
    F51 Pan-STARRS 1, Haleakala.  Observers B. Gibson, T. Goggia, N. Primak,
        A. Schultz, M. Willman.  Measurers K. Chambers, S. Chastel, L. Denneau,
        H. Flewelling, M. Huber, E. Lilly, E. Magnier, R. Wainscoat, C. Waters,
        R. Weryk.  1.8-m Ritchey-Chretien + CCD.
    G96 Mt. Lemmon Survey.  Observer R. A. Kowalski.  Measurers E. J. Christensen,
        D. C. Fuls, A. R. Gibbs, A. D. Grauer, J. A. Johnson, R. A. Kowalski,
        S. M. Larson, G. J. Leonard, R. G. Matheny, R. L. Seaman, F. C. Shelly.
        1.5-m reflector + 10K CCD.
    K92 Sutherland-LCOGT B.  Observers T. Lister, S. Greenstreet, E. Gomez.
        Measurer T. Lister.  1.0-m f/8 Ritchey-Chretien + CCD.
    O75 ISON-Hureltogoot Observatory.  Observers S. Schmalz, N. Tungalag.
        Measurer S. Schmalz.  0.4-m f/2.3 reflector + CCD.
    
    Orbital elements:
    2016 QJ10                                                Earth MOID = 0.2440 AU
    Epoch 2016 July 31.0 TT = JDT 2457600.5                 MPC
    M 343.70432              (2000.0)            P               Q
    n   0.25030569     Peri.  173.89632     +0.98993629     -0.14091104
    a   2.4935738      Node   194.22420     +0.12748721     +0.92803642
    e   0.5003759      Incl.    3.04370     +0.06142601     +0.34480789
    P   3.94           H   21.7           G   0.15           U   7
    Residuals in seconds of arc
    160824 D29  0.3-  0.5-    160827 K92  0.2+  0.2+    160827 O75  0.5+  0.5-
    160824 D29  0.3+  0.8+    160827 K92  0.1+  0.2+    160827 595  0.0   0.6-
    160824 D29  0.2+  0.2+    160827 K92  0.1+  0.1-    160827 595  0.1-  0.5+
    160826 F51  0.1-  0.0     160827 291  0.1-  0.0     160828 691  0.5+  0.4+
    160826 F51  0.0   0.1-    160827 291  0.1-  0.1+    160828 691  0.1+  0.3+
    160826 F51  0.0   0.1-    160827 D29  0.0   0.2+    160828 691  0.1-  0.1+
    160826 F51  0.0   0.2-    160827 D29  0.0   0.6-    160828 G96  0.1-  0.4-
    160826 246  1.7+  1.2+    160827 D29  0.2-  0.6-    160828 G96  0.1+  0.1-
    160826 246  0.3+  0.3+    160827 O75  0.4+  0.6-    160828 G96  0.5-  0.4-
    160827 K92  0.1-  0.2+    160827 O75  0.8-  0.4+    160828 G96  0.2+  0.1+
    160827 K92  0.0   0.2-    160827 O75  0.1-  0.0
    
    Ephemeris:
    2016 QJ10                a,e,i = 2.49, 0.50, 3                   q = 1.2458
    Date    TT    R. A. (2000) Decl.     Delta      r     Elong.  Phase     V
    2016 07 29    22 19 31.3 -01 47 56   0.4661  1.4352   149.1    21.3    21.9
    ...
    2016 08 13    22 34 12.4 +00 03 47   0.3712  1.3654   158.6    15.7    21.1
    ...
    2016 08 21    22 42 00.5 +00 44 03   0.3319  1.3334   163.6    12.3    20.7
    ...
    2016 08 27    22 48 07.3 +01 03 11   0.3076  1.3121   167.3     9.8    20.4
    2016 08 28    22 49 10.6 +01 05 22   0.3039  1.3088   167.9     9.3    20.3
    2016 08 29    22 50 14.6 +01 07 16   0.3004  1.3056   168.4     8.9    20.3
    ...
    2016 09 04    22 56 58.5 +01 12 34   0.2818  1.2879   171.5     6.6    20.0
    ...
    2016 09 12    23 07 09.3 +01 04 58   0.2637  1.2688   173.7     5.0    19.7
    ...
    2016 09 27    23 30 54.3 +00 22 38   0.2497  1.2482   168.9     8.9    19.8
    
    A. U. Tomatic                (C) Copyright 2016 MPC           M.P.E.C. 2016-Q32
    

    Read MPEC 2016-Q31 Read MPEC 2016-Q33


    MPEC number:

    Enter an MPEC number in one of the following forms:

    • 1997-B01 (the full form)
    • J97B01 (the packed version of the full form)
    • B01 (the abbreviated form)